Total_Precipitation_Accumulation
0.00 0.00 0.00 0.00 0.00 0.00 0.00 0.01 0.02 0.02 0.02 0.01 0.01 0.00 0.00 0.01 0.03 0.06 0.06 0.08 0.12 0.16 0.21 0.28 0.34 0.36 0.41
0.00 0.00 0.00 0.00 0.00 0.00 0.01 0.02 0.01 0.00 0.00 0.00 0.00 0.00 0.00 0.02 0.05 0.09 0.12 0.15 0.19 0.22 0.24 0.24 0.25 0.29 0.29
0.00 0.00 0.00 0.03 0.04 0.01 0.00 0.00 0.00 0.00 0.00 0.00 0.00 0.01 0.02 0.03 0.07 0.09 0.11 0.11 0.10 0.09 0.09 0.11 0.12 0.15 0.18
0.11 0.12 0.12 0.07 0.03 0.01 0.00 0.00 0.00 0.00 0.00 0.00 0.01 0.01 0.02 0.02 0.02 0.01 0.01 0.01 0.02 0.05 0.08 0.09 0.09 0.08 0.08
0.28 0.22 0.10 0.02 0.00 0.00 0.01 0.02 0.02 0.01 0.00 0.00 0.00 0.00 0.00 0.00 0.00 0.01 0.02 0.06 0.09 0.11 0.14 0.14 0.15 0.14 0.13
0.29 0.10 0.01 0.00 0.01 0.05 0.15 0.13 0.07 0.00 0.01 0.01 0.00 0.00 0.00 0.00 0.01 0.03 0.04 0.04 0.04 0.08 0.11 0.12 0.12 0.14 0.15
0.03 0.00 0.01 0.05 0.21 0.20 0.09 0.08 0.04 0.01 0.04 0.06 0.00 0.01 0.01 0.01 0.00 0.01 0.02 0.04 0.05 0.07 0.10 0.11 0.11 0.10 0.08
0.00 0.02 0.06 0.08 0.06 0.07 0.06 0.07 0.03 0.00 0.02 0.10 0.01 0.00 0.00 0.00 0.00 0.01 0.01 0.07 0.13 0.16 0.19 0.19 0.17 0.15 0.13
0.07 0.04 0.01 0.00 0.01 0.11 0.16 0.15 0.08 0.01 0.00 0.03 0.02 0.01 0.00 0.00 0.00 0.01 0.04 0.07 0.05 0.06 0.07 0.09 0.10 0.11 0.13
0.01 0.00 0.00 0.00 0.01 0.03 0.17 0.43 0.18 0.13 0.00 0.16 0.10 0.06 0.25 0.02 0.00 0.01 0.00 0.00 0.02 0.03 0.04 0.06 0.08 0.12 0.15
0.00 0.00 0.00 0.00 0.00 0.01 0.07 0.41 0.58 0.34 0.01 0.38 0.41 0.07 0.20 0.08 0.00 0.00 0.00 0.00 0.03 0.07 0.14 0.21 0.22 0.27 0.35
0.00 0.00 0.01 0.01 0.01 0.01 0.02 0.06 0.18 0.43 0.16 0.27 0.64 0.26 0.38 0.19 0.03 0.00 0.00 0.01 0.18 0.34 0.48 0.49 0.47 0.39 0.35
0.04 0.02 0.02 0.02 0.02 0.03 0.02 0.01 0.02 0.04 0.08 0.15 0.36 0.30 0.33 0.29 0.15 0.03 0.13 0.09 0.26 0.56 0.45 0.39 0.43 0.48 0.43
0.07 0.03 0.02 0.03 0.04 0.06 0.11 0.04 0.11 0.02 0.02 0.05 0.17 0.30 0.26 0.09 0.20 0.15 0.16 0.35 0.24 0.32 0.42 0.34 0.33 0.45 0.50
0.07 0.07 0.04 0.03 0.03 0.03 0.12 0.15 0.16 0.11 0.07 0.02 0.02 0.06 0.07 0.14 0.16 0.13 0.22 0.25 0.38 0.56 0.55 0.41 0.44 0.68 0.60
0.05 0.06 0.10 0.09 0.10 0.05 0.07 0.15 0.19 0.12 0.13 0.09 0.07 0.04 0.03 0.06 0.17 0.32 0.33 0.35 0.48 0.58 0.60 0.62 0.60 0.72 0.55
0.09 0.12 0.16 0.10 0.07 0.07 0.07 0.09 0.09 0.10 0.13 0.15 0.12 0.16 0.16 0.09 0.09 0.38 0.55 0.48 0.51 0.49 0.55 0.63 0.79 0.88 0.62